[[{"header":{"parameterUnit":"m.s-1","parameterCategory":1,"la1":30.2991,"la2":30.254,"lo1":-89.0895,"lo2":-89.0444,"dy":0.0017,"dx":0.0017,"nx":28,"ny":28,"refTime":"2025-11-25T09:00:00:Z","depth":0,"parameterNumber":2,"parameterNumberName":"U-component_of_WINDS"},"data":[0,0,0,0,0,0,0,0,0,0,0,0,0,0,0,0,0,0,0,0,0,0,0,0,0,0,0,0,0,0,0,0,0,0,0,0,0,0,0,0,0,0,0,0,0,0,0,0,0,0,0,0,0,0,0,0,0,0,0.8032,0.8033,0,0.8104,0.8105,0.8105,0.813,0.813,0.8129,0.8129,0.8197,0.8199,0.8201,0,0,0,0,0,0,0,0,0,0,0,0,0,0.7912,0.7914,0.8032,0.8033,0.8034,0.8104,0.8105,0.8106,0.813,0.813,0.8129,0.8129,0.8196,0.8198,0.8201,0,0,0,0,0,0,0,0,0,0,0,0,0,0.7972,0.7915,0.8032,0.8055,0.8058,0.8104,0.8105,0.8106,0.813,0.813,0.8129,0.8129,0.8195,0.8198,0.8201,0.8228,0,0,0.821,0.8212,0,0,0,0,0,0,0,0,0.7968,0.7976,0.8051,0.8053,0.8056,0.8108,0.8087,0.8147,0.813,0.8102,0.8129,0.8129,0.8167,0.8172,0.8186,0.8231,0.8234,0.8211,0.8213,0.8214,0.8215,0,0,0,0,0,0,0,0.7964,0.7973,0.806,0.8052,0.8055,0.806,0.8068,0.8098,0.8136,0.8105,0.8107,0.8115,0.8168,0.8183,0.8188,0.8235,0.8211,0.8213,0.8215,0.8216,0.8306,0.8307,0,0,0,0,0,0,0.7957,0.797,0.8058,0.8063,0.8011,0.8062,0.8071,0.8092,0.8136,0.8142,0.8115,0.8116,0.8178,0.8185,0.8191,0.8226,0.8214,0.8217,0.8218,0.8306,0.8307,0.8307,0,0,0,0,0,0,0.7954,0.7965,0.8055,0.8017,0.8029,0.8065,0.8087,0.8093,0.8108,0.8144,0.815,0.8124,0.8178,0.8186,0.8219,0.8229,0.8218,0.8221,0.8305,0.8306,0.8307,0.8297,0,0,0,0,0,0,0.7951,0.7964,0.7975,0.8017,0.8031,0.8084,0.8088,0.8095,0.8114,0.8116,0.8154,0.8159,0.8179,0.8215,0.8222,0.8233,0.8223,0.8305,0.8306,0.8307,0.8296,0.8297,0.8298,0,0,0,0,0,0.7946,0.7968,0.7976,0.7986,0.8046,0.8085,0.8092,0.8116,0.8115,0.8126,0.8149,0.8158,0.8226,0.8218,0.8227,0.8238,0.8304,0.8305,0.8307,0.8296,0.8297,0.8298,0,0,0,0,0,0,0.7923,0.7973,0.7983,0.8019,0.8048,0.8089,0.8104,0.8115,0.8143,0.8143,0.8169,0.8178,0.8209,0.8226,0.8216,0.8267,0.8266,0.8269,0.8254,0.8256,0.8256,0.8251,0.8226,0,0,0,0,0,0.7923,0.7952,0.7993,0.8021,0.8035,0.8067,0.8084,0.81,0.813,0.8142,0.8167,0.8194,0.8222,0.824,0.8267,0.8299,0.8308,0.8311,0.8312,0.8312,0.8315,0.8334,0.8336,0.8311,0.8311,0.8311,0,0,0.7921,0.7952,0.7968,0.8017,0.8041,0.8069,0.8077,0.8106,0.8126,0.8145,0.8179,0.8199,0.8231,0.8264,0.8279,0.828,0.8324,0.8314,0.8314,0.8316,0.8335,0.8338,0.834,0.8312,0.8312,0.8312,0,0,0.7933,0.7959,0.7986,0.8011,0.8049,0.807,0.8077,0.8117,0.8131,0.8166,0.8181,0.8205,0.8252,0.8275,0.8293,0.8315,0.8325,0.8323,0.8327,0.8345,0.8347,0.8349,0.8358,0.8361,0.8325,0.8325,0.8325,0,0.7926,0.7971,0.7998,0.8027,0.8048,0.8069,0.8096,0.8118,0.8161,0.8175,0.8175,0.8236,0.8259,0.8298,0.8304,0.8317,0.8325,0.8319,0.8345,0.8347,0.8349,0.8358,0.8361,0.8325,0.8325,0.8325,0.8325,0,0.7961,0.7991,0.8008,0.8053,0.8076,0.8103,0.8133,0.8153,0.8167,0.8188,0.8223,0.8251,0.8286,0.8296,0.8309,0.8337,0.8336,0.834,0.8339,0.8351,0.836,0.8363,0.8325,0.8325,0.8325,0.8325,0,0,0.7959,0.802,0.8026,0.8047,0.8091,0.8115,0.8143,0.8179,0.8196,0.8225,0.8249,0.829,0.8294,0.8314,0.833,0.8346,0.8363,0.8348,0.8349,0.8351,0.8397,0.8395,0.8398,0.837,0.8371,0.8371,0.8395,0,0.7977,0.8032,0.8058,0.81,0.8129,0.815,0.8175,0.8204,0.8225,0.8251,0.8273,0.8302,0.8305,0.8318,0.8335,0.8358,0.8373,0.8356,0.8392,0.8393,0.8384,0.8403,0.8399,0.8421,0.8398,0.8399,0.8399,0,0.8005,0.8038,0.8085,0.8127,0.814,0.8162,0.8198,0.8223,0.8256,0.827,0.8294,0.8309,0.8339,0.8336,0.8377,0.8365,0.8381,0.8395,0.8396,0.8401,0.8397,0.8408,0.8428,0.8431,0.8405,0.8404,0.8404,0,0.8001,0.8056,0.8092,0.8109,0.8159,0.8174,0.8195,0.8228,0.8249,0.8279,0.8293,0.8325,0.8343,0.8368,0.8391,0.8387,0.843,0.8429,0.8442,0.8442,0.845,0.845,0.8474,0.846,0.846,0.8459,0.8459,0,0.8019,0.8046,0.8091,0.8112,0.8144,0.8173,0.8203,0.8225,0.8255,0.828,0.8299,0.8322,0.8352,0.8378,0.8397,0.8429,0.8436,0.8447,0.8452,0.8446,0.8445,0.8457,0.8456,0.846,0.846,0.846,0.846,0,0.8019,0.805,0.809,0.8135,0.8147,0.8168,0.8206,0.8228,0.825,0.8282,0.8291,0.8325,0.8358,0.8384,0.8425,0.8438,0.8471,0.8476,0.8461,0.8463,0.8475,0.8474,0.8509,0.8515,0.8496,0.8496,0.8496,0,0.8028,0.8051,0.8099,0.8119,0.8141,0.8172,0.8195,0.8224,0.8245,0.8286,0.8302,0.8337,0.8366,0.8417,0.8444,0.8476,0.8482,0.8492,0.8487,0.8481,0.8483,0.8482,0.8484,0.8492,0.8492,0.8493,0.8493,0,0.8042,0.8057,0.809,0.8128,0.8155,0.8185,0.8216,0.8231,0.8265,0.8288,0.8324,0.8347,0.8391,0.8424,0.846,0.848,0.8492,0.8494,0.8499,0.8493,0.8484,0.849,0.8463,0.8493,0.8493,0.8493,0.8493,0.8493,0.8048,0.807,0.8108,0.8144,0.8171,0.82,0.8223,0.825,0.828,0.832,0.8335,0.8371,0.8404,0.8454,0.8474,0.8501,0.8502,0.8509,0.8511,0.8512,0.8512,0.848,0.8508,0.8508,0.8508,0.8508,0.8508,0,0.8064,0.8091,0.8123,0.8168,0.8196,0.8208,0.8243,0.8265,0.8298,0.8329,0.8358,0.8399,0.8432,0.8463,0.8497,0.8514,0.852,0.8522,0.8521,0.8525,0.8509,0.8502,0.8516,0.8516,0.8516,0.8516,0.8516,0.8516,0.8076,0.8113,0.8133,0.8184,0.821,0.8248,0.8267,0.8294,0.8319,0.8365,0.8394,0.8415,0.8446,0.8483,0.8514,0.8522,0.8534,0.8534,0.8544,0.8527,0.8526,0.8525,0.8519,0.8536,0.8536,0.8558,0.8558,0.8559]},{"header":{"parameterUnit":"m.s-1","parameterCategory":1,"la1":30.2991,"la2":30.254,"lo1":-89.0895,"lo2":-89.0444,"dy":0.0017,"dx":0.0017,"nx":28,"ny":28,"refTime":"2025-11-25T09:00:00:Z","depth":0,"parameterNumber":3,"parameterNumberName":"V-component_of_WINDS"},"data":[0,0,0,0,0,0,0,0,0,0,0,0,0,0,0,0,0,0,0,0,0,0,0,0,0,0,0,0,0,0,0,0,0,0,0,0,0,0,0,0,0,0,0,0,0,0,0,0,0,0,0,0,0,0,0,0,0,0,4.558,4.5581,0,4.5681,4.5682,4.5683,4.5714,4.5714,4.5713,4.5713,4.5821,4.5825,4.5828,0,0,0,0,0,0,0,0,0,0,0,0,0,4.5421,4.5424,4.5579,4.5581,4.5582,4.568,4.5682,4.5683,4.5714,4.5713,4.5713,4.5712,4.582,4.5824,4.5828,0,0,0,0,0,0,0,0,0,0,0,0,0,4.5503,4.5425,4.5579,4.5609,4.5613,4.568,4.5682,4.5684,4.5714,4.5713,4.5713,4.5712,4.5819,4.5824,4.5829,4.5875,0,0,4.5844,4.5846,0,0,0,0,0,0,0,0,4.5498,4.5509,4.5603,4.5607,4.5611,4.5684,4.5666,4.5748,4.5714,4.5676,4.5713,4.5712,4.5777,4.5785,4.5806,4.588,4.5885,4.5845,4.5848,4.585,4.5851,0,0,0,0,0,0,0,4.5493,4.5505,4.562,4.5605,4.561,4.562,4.5631,4.5682,4.5729,4.5679,4.5682,4.5693,4.5779,4.5801,4.5809,4.5887,4.5845,4.5849,4.5852,4.5854,4.6011,4.6012,0,0,0,0,0,0,4.5481,4.55,4.5616,4.5623,4.5552,4.5624,4.5636,4.5661,4.5729,4.5738,4.5693,4.5694,4.5793,4.5803,4.5813,4.5876,4.585,4.5855,4.5857,4.601,4.6011,4.6013,0,0,0,0,0,0,4.5478,4.5491,4.5612,4.5562,4.5578,4.5627,4.5656,4.5664,4.5686,4.574,4.5749,4.5707,4.5792,4.5805,4.586,4.588,4.5857,4.5861,4.6009,4.601,4.6012,4.5999,0,0,0,0,0,0,4.5473,4.549,4.5505,4.5562,4.5581,4.5656,4.5657,4.5666,4.5694,4.5696,4.5755,4.5764,4.5793,4.5853,4.5865,4.5886,4.5865,4.6007,4.6009,4.6011,4.5998,4.6,4.6002,0,0,0,0,0,4.5467,4.5497,4.5506,4.552,4.5601,4.5656,4.5668,4.5699,4.5695,4.5714,4.5749,4.5762,4.5875,4.5858,4.5873,4.5895,4.6006,4.6009,4.6011,4.5997,4.6,4.6002,0,0,0,0,0,0,4.5442,4.5505,4.5515,4.5564,4.5605,4.5662,4.5685,4.5699,4.5743,4.5743,4.5782,4.5795,4.5848,4.5877,4.5857,4.5947,4.5942,4.5947,4.5926,4.5929,4.5931,4.5924,4.587,0,0,0,0,0,4.5442,4.548,4.5534,4.5572,4.5592,4.5635,4.566,4.5681,4.5725,4.5743,4.5782,4.5826,4.5873,4.5902,4.5947,4.6002,4.6019,4.6026,4.6028,4.6029,4.6034,4.6071,4.6077,4.6021,4.6021,4.6021,0,0,4.5442,4.5482,4.5503,4.5568,4.5602,4.5643,4.5649,4.5691,4.5724,4.575,4.5805,4.5836,4.5888,4.5945,4.5972,4.5971,4.6053,4.6032,4.6033,4.6037,4.6075,4.608,4.6085,4.6023,4.6022,4.6022,0,0,4.5465,4.5497,4.5535,4.5569,4.5621,4.565,4.5659,4.5715,4.5737,4.5792,4.5814,4.5855,4.5932,4.597,4.5999,4.6043,4.6059,4.6056,4.6067,4.6103,4.6108,4.6112,4.6132,4.6138,4.6061,4.6061,4.6061,0,4.546,4.5521,4.5552,4.5595,4.5625,4.5651,4.5692,4.5725,4.5789,4.5811,4.5808,4.5909,4.5946,4.6015,4.6026,4.6047,4.6063,4.605,4.6104,4.6109,4.6113,4.6133,4.614,4.6061,4.6061,4.6061,4.6061,0,4.5514,4.5556,4.5581,4.5643,4.5676,4.5717,4.5759,4.5789,4.5808,4.5839,4.5899,4.5945,4.6002,4.602,4.6038,4.6093,4.6092,4.6096,4.6092,4.6118,4.6137,4.6144,4.606,4.606,4.606,4.606,0,0,4.552,4.5602,4.5611,4.5642,4.5703,4.5738,4.5784,4.5839,4.5866,4.5911,4.5953,4.602,4.6026,4.606,4.6084,4.6115,4.6153,4.6117,4.6119,4.6126,4.6223,4.6221,4.6229,4.6164,4.6165,4.6166,4.622,0,4.5553,4.5633,4.5665,4.5731,4.5774,4.5802,4.5843,4.5887,4.5918,4.5962,4.5998,4.6046,4.6048,4.607,4.6102,4.6141,4.6174,4.6138,4.6207,4.6209,4.6196,4.6238,4.6235,4.6283,4.6227,4.6228,4.6229,0,4.56,4.5647,4.5717,4.5779,4.5798,4.5833,4.589,4.5929,4.5983,4.6004,4.6044,4.6068,4.6121,4.6113,4.619,4.6165,4.6196,4.622,4.6223,4.6233,4.6222,4.6252,4.6299,4.6307,4.6241,4.624,4.6239,0,4.5603,4.5683,4.5737,4.5762,4.5833,4.5859,4.589,4.5942,4.5976,4.6026,4.6049,4.6105,4.6137,4.6182,4.6222,4.6212,4.6298,4.6291,4.6321,4.632,4.6339,4.6338,4.6394,4.6354,4.6353,4.6353,4.6353,0,4.5637,4.568,4.5739,4.5772,4.5824,4.5863,4.5913,4.5947,4.5995,4.6038,4.6066,4.6107,4.6156,4.6205,4.6237,4.63,4.6312,4.6335,4.6343,4.6334,4.6331,4.6356,4.6355,4.6355,4.6355,4.6354,4.6354,0,4.5647,4.5688,4.575,4.5814,4.5832,4.5867,4.5924,4.596,4.5995,4.605,4.6066,4.612,4.618,4.6225,4.6301,4.6323,4.6391,4.6398,4.6373,4.6378,4.6407,4.6405,4.6483,4.6498,4.6444,4.6444,4.6445,0,4.5667,4.5701,4.5771,4.5802,4.5833,4.5882,4.5917,4.596,4.5996,4.6062,4.6092,4.6153,4.6204,4.6299,4.6348,4.6409,4.642,4.6444,4.6429,4.6421,4.6426,4.6424,4.6431,4.6446,4.6446,4.6447,4.6447,0,4.5699,4.5719,4.5767,4.5825,4.5867,4.5914,4.5962,4.5987,4.6039,4.6079,4.614,4.618,4.626,4.6323,4.639,4.6427,4.6448,4.6451,4.6462,4.6454,4.644,4.6453,4.6382,4.6449,4.6449,4.6449,4.6449,4.6449,4.5717,4.5751,4.5807,4.5862,4.5903,4.5949,4.5988,4.6029,4.608,4.6148,4.6171,4.6236,4.6295,4.6387,4.6425,4.6479,4.648,4.6494,4.6498,4.6502,4.6504,4.6429,4.6491,4.6491,4.6491,4.6491,4.6491,0,4.5753,4.5792,4.5842,4.591,4.5956,4.597,4.6027,4.6064,4.612,4.6173,4.6224,4.6299,4.6361,4.6417,4.6483,4.6517,4.6529,4.6533,4.6533,4.6542,4.6497,4.6483,4.6523,4.6523,4.6523,4.6523,4.6523,4.6523,4.5778,4.5838,4.5866,4.5949,4.5988,4.6052,4.6083,4.6128,4.6171,4.6252,4.6305,4.6341,4.6397,4.6469,4.6529,4.6544,4.6569,4.6572,4.6591,4.6548,4.6544,4.6541,4.6528,4.6577,4.6577,4.6632,4.6632,4.6633]}]]